Wind_Speed
15 14 13 13 14 14 15 16 15 14 14 15 15 15 14 14 14 15 16 17 17 15 15 15 14 15 16 16 16 17 15 13 13 12 13 13 12 12 12 12 11 11 11 10
15 14 14 14 14 14 15 15 14 13 14 15 16 16 15 14 15 16 17 17 17 16 16 15 15 16 16 16 17 17 16 14 14 13 13 13 13 13 13 13 12 12 12 11
16 15 16 15 15 15 16 17 15 14 14 16 18 18 18 17 18 17 17 18 18 17 16 16 15 15 15 16 18 18 17 16 15 14 14 14 14 14 14 13 13 13 13 12
17 17 16 16 16 16 17 16 16 15 16 18 19 20 19 20 20 18 18 19 19 18 18 18 17 16 16 17 18 18 17 16 15 15 15 15 15 15 15 14 14 14 14 13
17 16 16 16 16 17 17 17 18 17 18 19 20 20 19 20 21 19 19 19 19 20 20 19 18 18 18 18 19 19 18 17 16 16 16 16 16 16 16 15 15 14 14 14
17 17 17 17 16 17 17 17 18 18 19 19 18 19 18 19 20 19 19 19 20 20 21 21 19 19 20 19 19 19 18 17 17 17 17 17 17 17 17 17 16 15 15 15
16 16 17 17 16 16 16 17 18 18 19 18 18 19 17 17 18 19 18 18 19 19 21 20 20 20 20 20 19 19 19 18 18 18 18 18 18 18 18 17 17 16 16 15
16 16 16 17 17 16 16 16 17 18 19 18 19 20 18 17 17 18 19 19 20 19 20 20 21 21 22 21 21 20 20 20 19 20 19 19 19 18 18 18 18 17 16 15
17 17 16 17 17 17 16 16 17 18 18 19 21 21 20 20 19 19 19 21 21 20 21 22 22 21 22 22 22 22 21 20 21 21 21 21 21 20 19 19 19 18 17 17
15 17 18 18 18 16 16 17 18 19 19 20 21 21 21 22 22 22 22 21 21 22 23 22 21 22 22 22 23 22 22 21 21 22 22 22 22 21 21 20 19 19 18 18
16 16 16 17 18 18 18 18 19 20 22 23 23 22 21 22 22 22 21 21 21 22 22 21 22 22 22 22 23 23 23 23 23 23 23 23 23 22 22 21 20 20 19 19
18 17 17 17 18 18 19 20 21 22 23 23 25 25 23 23 22 23 23 23 22 22 22 22 22 21 21 21 21 22 23 23 24 24 24 24 24 23 22 21 21 21 20 19
19 20 19 20 20 19 20 21 22 23 23 24 25 25 24 24 24 23 23 23 23 23 24 24 23 21 22 23 23 23 23 23 24 24 25 24 24 24 23 22 22 21 20 20
21 21 21 21 21 21 20 21 21 22 24 25 25 25 25 25 23 23 23 23 23 24 24 25 25 23 23 24 25 25 24 24 24 24 25 26 25 24 23 22 22 21 21 20
20 21 21 21 22 23 22 21 21 23 24 26 26 25 24 24 24 23 24 25 26 25 24 25 25 25 23 24 25 25 25 25 25 25 25 26 25 23 22 22 21 21 20 19
22 22 21 21 23 24 24 23 22 23 24 26 25 25 24 24 24 25 25 26 26 26 26 25 25 26 24 23 23 24 25 25 24 24 24 24 24 24 22 22 21 21 20 20
24 23 23 23 23 24 25 23 23 23 24 25 26 24 24 24 24 25 26 26 26 27 27 26 25 24 24 23 22 23 24 25 24 23 23 23 23 23 23 22 22 21 21 21
24 24 24 25 24 25 24 23 24 24 24 25 25 24 25 25 25 25 26 27 26 25 26 25 24 23 24 24 23 23 24 23 22 22 22 23 22 21 22 22 23 23 22 22
24 24 25 25 25 25 24 23 24 24 25 25 26 26 25 25 25 26 26 26 25 25 25 24 24 24 24 24 23 23 23 23 22 22 22 22 21 21 22 23 23 23 22 21
24 24 25 25 25 24 23 23 24 25 26 26 27 27 27 27 27 26 26 26 26 25 24 24 24 24 24 24 23 22 22 23 23 23 22 21 21 21 20 20 21 22 21 21
22 23 24 24 25 25 24 24 24 25 24 25 26 26 27 28 27 25 25 25 25 25 24 24 24 24 24 23 22 22 23 23 23 23 22 21 21 21 20 20 20 20 21 20
23 23 24 24 25 25 25 26 26 25 25 26 25 25 26 27 26 26 26 25 23 23 23 23 23 23 23 22 21 21 22 22 22 21 21 21 21 20 20 20 20 20 20 20
23 23 24 24 25 25 24 24 25 25 25 25 24 24 25 25 24 25 24 24 24 23 23 22 22 22 22 22 21 20 20 20 20 20 19 19 20 20 19 20 20 20 21 20
25 25 25 25 25 25 25 25 25 25 25 25 25 24 24 24 24 24 24 24 23 23 22 22 22 22 22 21 20 19 19 19 19 18 18 18 18 19 19 19 19 20 20 20
25 26 26 26 26 26 26 26 25 25 24 24 24 23 23 23 23 23 23 23 24 23 23 22 21 21 21 21 20 19 18 18 18 16 16 16 16 16 18 19 18 18 19 19
25 25 26 26 26 26 26 26 26 25 25 25 24 24 24 24 24 24 23 23 23 23 23 22 21 20 20 20 19 19 18 17 16 16 15 15 15 16 17 17 18 18 19 20
Wind_Direction
236 236 238 241 240 240 243 248 255 251 252 259 261 263 266 271 273 279 286 289 288 293 295 292 293 291 291 292 294 296 291 291 294 298 299 297 298 300 302 299 300 304 307 305
237 236 237 239 242 243 244 247 250 249 253 261 263 260 264 267 272 275 283 288 291 293 294 294 293 290 288 289 293 292 292 290 291 292 293 292 293 295 297 293 294 298 300 298
236 236 234 239 240 241 246 250 250 253 256 259 260 260 262 268 272 275 279 281 286 287 289 291 291 290 287 290 290 288 285 286 287 288 288 286 289 291 293 295 296 296 294 290
235 236 237 242 243 244 247 250 250 255 260 262 264 267 264 270 271 271 272 273 278 285 293 293 289 289 287 288 288 288 285 285 287 286 285 286 287 288 289 292 293 295 292 287
237 238 241 246 246 250 251 248 249 253 259 261 261 266 268 270 269 267 267 270 278 284 290 293 293 289 287 287 287 287 285 286 284 282 282 284 285 285 286 287 287 290 292 289
238 238 241 243 244 250 254 250 251 253 257 260 262 266 268 269 268 267 269 271 278 282 287 288 286 285 283 284 283 284 285 284 281 279 279 280 283 283 283 285 285 286 287 287
238 238 239 242 244 249 253 251 251 253 255 260 262 265 271 273 271 272 274 277 279 282 285 289 287 283 282 284 284 283 283 281 278 277 277 278 281 281 280 282 282 280 283 283
239 236 240 242 248 252 253 253 254 257 260 263 264 269 272 275 277 276 278 279 278 279 282 285 282 279 279 281 281 281 280 279 278 277 277 278 281 281 278 279 276 275 279 281
245 240 240 242 246 249 250 252 254 257 262 265 265 268 270 271 277 282 280 278 276 277 280 280 277 278 280 280 278 277 275 275 275 275 275 276 279 279 278 278 275 272 273 276
251 242 239 245 246 248 249 250 253 255 262 266 266 267 270 273 277 281 282 279 280 280 278 279 283 282 281 279 278 277 274 273 272 272 272 273 275 277 277 276 275 274 272 273
253 249 244 243 246 248 251 250 253 256 260 264 266 268 272 275 278 282 283 285 286 281 276 279 282 282 280 280 281 278 276 276 274 273 272 272 273 275 275 274 273 272 271 269
254 253 249 247 251 254 256 252 254 257 261 266 269 272 275 276 277 281 282 282 285 284 281 282 283 283 282 281 280 278 278 277 276 274 272 271 272 273 273 271 270 269 268 266
257 255 253 250 253 255 259 260 257 258 261 264 268 273 276 276 279 281 281 282 286 288 287 284 282 281 283 284 283 280 278 278 275 274 271 270 271 270 270 270 268 266 264 264
255 255 255 256 257 259 260 263 261 260 263 265 268 272 275 274 278 280 282 285 288 289 290 287 285 283 284 284 283 281 280 278 275 276 274 272 273 270 268 267 266 264 263 263
252 253 255 258 259 260 260 262 265 264 266 269 269 272 276 276 278 279 281 283 287 290 289 288 287 286 284 282 281 281 281 278 276 277 275 270 269 270 267 265 263 262 262 263
250 254 256 256 257 260 262 263 264 264 267 270 273 273 276 276 277 279 281 283 286 289 291 291 290 290 286 284 281 280 282 279 278 278 273 268 267 266 266 264 261 261 262 264
253 253 255 258 260 261 261 265 265 265 267 270 273 274 274 277 279 281 282 283 286 288 289 290 289 288 288 284 282 282 283 280 277 277 274 269 267 267 264 260 260 261 261 263
256 258 259 261 261 259 262 264 265 266 269 271 274 275 277 277 279 281 282 284 285 286 287 288 288 288 286 285 284 282 281 280 277 277 275 271 267 265 262 260 260 259 258 261
257 258 261 261 261 262 262 264 265 267 268 272 274 276 278 279 280 280 282 283 286 286 287 288 286 286 285 287 285 287 284 281 281 280 276 272 268 265 263 260 258 258 257 258
257 259 262 264 265 266 264 266 267 268 269 271 273 276 278 280 279 279 281 284 286 286 286 286 286 285 287 287 286 286 286 283 281 280 277 274 272 268 264 262 258 256 255 256
259 260 263 265 268 268 268 267 269 269 271 273 274 276 277 278 279 279 281 282 284 285 284 284 285 285 288 287 285 286 287 285 281 278 275 272 271 269 265 261 259 256 255 255
261 263 264 265 267 270 273 273 273 274 274 276 278 279 278 278 277 278 281 282 283 283 282 283 284 286 288 286 286 286 287 285 280 278 275 271 268 266 263 260 258 255 254 255
261 263 265 267 270 271 273 273 274 277 276 277 279 280 280 279 278 277 279 281 280 281 280 280 282 284 284 284 283 284 286 285 282 278 274 269 266 263 261 259 258 255 253 254
262 264 267 269 271 271 271 274 276 277 278 277 280 282 281 281 280 280 277 277 277 277 278 279 279 280 282 281 279 281 284 285 283 278 271 267 265 262 260 258 257 254 252 253
263 265 267 269 270 270 272 276 278 277 277 278 280 280 281 281 279 279 280 279 278 277 276 277 278 278 279 279 277 278 282 284 280 277 270 265 262 260 260 259 256 254 253 255
262 264 266 267 268 270 272 274 278 279 278 279 280 278 279 281 280 280 280 279 278 275 275 275 275 275 276 276 276 276 277 279 275 274 269 263 262 261 261 259 256 256 257 258
Height
5868 5870 5871 5872 5873 5874 5874 5875 5875 5876 5876 5876 5875 5875 5876 5876 5876 5875 5875 5874 5873 5873 5873 5872 5871 5870 5869 5869 5868 5867 5865 5865 5864 5863 5863 5863 5862 5862 5861 5860 5859 5858 5857 5856
5865 5866 5867 5868 5868 5869 5870 5870 5871 5873 5872 5872 5872 5872 5872 5872 5872 5872 5871 5870 5869 5869 5869 5868 5867 5866 5866 5865 5864 5863 5862 5861 5860 5860 5860 5860 5859 5858 5858 5857 5856 5855 5854 5853
5860 5863 5862 5863 5864 5865 5866 5866 5868 5868 5868 5867 5868 5868 5868 5869 5868 5868 5867 5866 5866 5865 5864 5864 5864 5863 5862 5861 5861 5859 5858 5858 5857 5857 5857 5856 5855 5855 5854 5854 5853 5852 5851 5851
5856 5858 5858 5859 5859 5860 5862 5863 5863 5863 5863 5863 5864 5863 5864 5864 5864 5864 5863 5862 5862 5862 5861 5860 5859 5859 5858 5857 5857 5856 5854 5854 5853 5853 5853 5852 5852 5851 5850 5850 5849 5848 5847 5847
5852 5854 5854 5855 5856 5856 5857 5858 5858 5859 5859 5859 5859 5859 5860 5859 5859 5859 5859 5858 5858 5857 5856 5856 5855 5854 5854 5853 5852 5851 5850 5850 5849 5849 5849 5848 5847 5847 5846 5846 5845 5844 5843 5843
5848 5849 5849 5850 5851 5852 5852 5853 5854 5854 5854 5854 5855 5854 5855 5854 5853 5853 5853 5852 5852 5852 5851 5850 5849 5849 5848 5848 5847 5846 5845 5845 5845 5844 5844 5844 5843 5842 5842 5841 5841 5840 5839 5839
5844 5844 5845 5845 5846 5847 5848 5849 5849 5849 5849 5850 5850 5849 5850 5848 5848 5847 5847 5847 5846 5846 5845 5844 5843 5843 5843 5842 5842 5841 5840 5840 5840 5840 5839 5839 5839 5838 5837 5836 5836 5836 5835 5835
5839 5840 5841 5841 5842 5843 5843 5844 5845 5845 5845 5845 5845 5843 5845 5844 5843 5843 5842 5841 5841 5840 5839 5838 5838 5837 5837 5836 5835 5835 5835 5835 5835 5834 5834 5834 5833 5833 5833 5832 5831 5831 5830 5830
5834 5836 5837 5837 5838 5839 5839 5839 5840 5840 5839 5839 5839 5838 5838 5838 5838 5838 5837 5836 5835 5835 5833 5832 5832 5831 5831 5830 5829 5829 5829 5829 5829 5829 5828 5828 5828 5828 5827 5827 5826 5826 5825 5825
5829 5831 5832 5833 5833 5833 5835 5835 5835 5835 5834 5833 5833 5833 5833 5833 5833 5833 5832 5831 5830 5829 5828 5827 5826 5825 5824 5824 5823 5822 5822 5822 5822 5822 5822 5822 5822 5822 5821 5821 5821 5820 5820 5820
5825 5826 5828 5828 5828 5829 5830 5830 5830 5829 5829 5829 5828 5830 5829 5828 5828 5827 5826 5825 5824 5823 5822 5821 5820 5819 5818 5817 5817 5816 5816 5816 5816 5816 5815 5815 5816 5815 5815 5815 5815 5815 5815 5815
5820 5821 5822 5824 5824 5824 5825 5825 5825 5825 5824 5824 5823 5826 5823 5823 5822 5821 5820 5820 5819 5818 5816 5815 5814 5812 5812 5811 5810 5810 5810 5809 5809 5809 5808 5808 5808 5809 5809 5808 5808 5808 5809 5809
5815 5816 5817 5818 5821 5821 5820 5819 5819 5819 5819 5818 5818 5820 5818 5817 5816 5815 5814 5813 5812 5811 5810 5808 5806 5806 5806 5805 5805 5804 5803 5802 5802 5801 5801 5801 5801 5801 5802 5802 5802 5802 5803 5803
5810 5811 5812 5814 5814 5815 5815 5814 5813 5814 5813 5813 5813 5813 5812 5811 5810 5809 5808 5807 5806 5805 5804 5802 5801 5800 5800 5799 5798 5797 5796 5795 5795 5794 5794 5794 5794 5794 5794 5794 5795 5796 5796 5797
5805 5805 5806 5807 5808 5808 5808 5808 5808 5808 5807 5807 5807 5806 5806 5805 5804 5803 5802 5801 5801 5799 5798 5796 5795 5794 5793 5792 5790 5790 5789 5788 5787 5787 5786 5786 5786 5787 5787 5788 5788 5789 5790 5791
5799 5800 5801 5801 5802 5802 5802 5802 5802 5802 5801 5801 5800 5800 5800 5798 5797 5797 5796 5795 5794 5793 5791 5790 5789 5787 5786 5784 5783 5782 5781 5779 5779 5779 5779 5779 5779 5780 5781 5781 5782 5783 5784 5785
5793 5794 5795 5795 5795 5795 5795 5796 5796 5795 5795 5794 5794 5795 5793 5792 5791 5791 5790 5789 5787 5786 5785 5783 5782 5780 5779 5778 5776 5775 5774 5773 5772 5772 5772 5772 5772 5773 5774 5774 5775 5776 5777 5778
5787 5788 5788 5789 5789 5789 5792 5790 5789 5789 5788 5788 5787 5787 5786 5785 5785 5784 5783 5782 5781 5779 5778 5777 5775 5774 5773 5771 5770 5769 5768 5767 5766 5765 5764 5764 5765 5766 5767 5767 5768 5769 5770 5771
5780 5781 5781 5781 5781 5781 5783 5783 5782 5782 5781 5781 5780 5780 5779 5778 5778 5777 5776 5774 5774 5773 5771 5770 5769 5767 5766 5764 5763 5762 5761 5760 5759 5758 5758 5757 5758 5758 5759 5760 5761 5762 5763 5764
5774 5774 5775 5774 5774 5775 5777 5777 5775 5776 5774 5775 5774 5773 5772 5771 5771 5771 5769 5767 5767 5766 5764 5763 5762 5761 5759 5758 5757 5756 5754 5753 5752 5751 5751 5751 5751 5751 5751 5752 5754 5755 5756 5758
5767 5767 5768 5768 5767 5768 5769 5769 5768 5769 5769 5767 5766 5766 5765 5764 5764 5763 5761 5760 5759 5758 5757 5756 5755 5754 5753 5751 5750 5749 5747 5746 5745 5744 5744 5744 5744 5744 5745 5746 5747 5748 5750 5751
5760 5761 5761 5761 5761 5763 5761 5761 5762 5761 5760 5759 5759 5758 5757 5756 5755 5754 5753 5753 5752 5751 5750 5749 5748 5747 5746 5744 5743 5741 5740 5738 5737 5737 5736 5737 5737 5738 5738 5739 5740 5741 5743 5745
5753 5754 5754 5755 5756 5755 5754 5753 5753 5753 5752 5752 5751 5751 5750 5749 5747 5746 5746 5745 5745 5744 5743 5742 5741 5741 5739 5738 5736 5735 5733 5731 5730 5729 5729 5730 5730 5731 5732 5732 5733 5735 5736 5738
5746 5746 5747 5747 5747 5747 5746 5746 5746 5745 5745 5745 5744 5743 5742 5741 5740 5739 5738 5737 5737 5736 5736 5735 5734 5734 5733 5731 5729 5728 5726 5724 5723 5722 5722 5723 5724 5725 5725 5726 5727 5729 5730 5732
5739 5739 5739 5739 5739 5739 5739 5738 5738 5738 5737 5737 5736 5735 5734 5733 5732 5731 5731 5730 5730 5729 5728 5728 5727 5726 5725 5724 5723 5721 5720 5718 5716 5716 5716 5717 5718 5719 5720 5721 5722 5723 5725 5726
5731 5731 5732 5732 5732 5732 5732 5731 5730 5730 5730 5729 5728 5728 5727 5726 5725 5724 5723 5723 5722 5721 5721 5720 5720 5719 5719 5718 5716 5715 5714 5712 5711 5711 5711 5711 5712 5713 5714 5715 5716 5717 5718 5719